GFSSGP_con_mucape_231.txt.gz
CAPE
5 33 138 394 226 132 41 13 19 33 32 30 8 67 136 259 197 9 301 417 1005 1387 1627 1963 2566 2454 2278 2381 2474 2296 2262 2239 2329 2329 2232 1849 1987 1914 1738 1615 1666 1630 1613 1749 1939 2000 2166 2347 1401
0 229 626 382 103 31 4 16 22 20 62 48 83 58 143 317 471 467 372 656 1052 1420 1519 1932 2538 2572 2306 2391 2402 2494 2550 2403 2269 2203 1925 1926 2062 1953 1839 1594 1456 1407 1401 1451 1666 1923 2136 2010 1876
135 739 437 370 173 9 5 17 7 4 49 67 35 69 201 402 433 316 314 738 1005 1171 1593 1618 2159 2115 2377 2439 2477 2503 2408 2486 2366 2296 2191 2231 1950 1891 1763 1748 1710 1690 1566 1393 1449 1636 1820 1840 1758
448 845 500 368 79 43 25 61 95 77 46 16 27 76 188 232 253 354 454 682 904 1073 1443 1888 2047 2085 2283 2463 1954 1989 2345 2470 2132 2340 2226 2222 1996 1942 1839 1713 1464 1640 1604 1637 1494 1496 1463 1401 1303
336 487 251 118 89 6 89 90 110 136 97 88 31 50 116 133 217 264 475 599 729 1122 1357 1440 2354 2131 1902 2110 2111 1300 1736 1869 1958 2470 2233 1978 1935 1595 1472 1604 1379 1253 1131 1552 1443 1477 1402 1171 1234
414 104 73 82 67 124 73 118 123 76 70 39 43 46 80 122 186 375 464 525 860 941 1003 1474 2018 1911 1883 1501 1352 1490 1656 1758 1854 1870 1745 1600 1517 1347 1079 852 836 1004 1244 1244 1558 1341 1458 1334 998
399 126 27 186 165 194 157 140 78 33 8 0 6 34 82 172 328 401 456 599 763 831 1068 1336 1166 1345 1831 1500 1522 1708 1705 1583 1524 1408 1216 1057 961 1024 1239 1469 1225 1176 1144 699 885 1241 899 1251 916
323 47 71 113 129 187 196 92 41 28 14 0 27 38 94 172 304 244 224 482 634 777 905 1081 732 1043 1455 1204 1338 1405 1410 1366 1331 1249 1232 1334 1614 1730 1646 1315 1051 1041 791 795 788 1054 658 1154 1352
67 43 68 78 169 273 285 87 46 63 31 69 84 37 57 179 159 139 74 302 500 589 838 882 692 716 1059 1208 1279 1639 1534 1450 1462 1471 1610 1453 1184 1344 1284 958 1450 1284 1254 1287 1075 853 778 1101 1498
248 19 8 111 107 309 376 306 165 63 93 130 16 57 130 122 154 30 0 104 305 358 439 593 560 448 601 753 905 1102 1206 1063 1008 864 1069 939 1005 1164 1491 1965 2297 2173 1620 1340 1313 1177 984 1292 1280
134 37 53 29 16 313 437 275 174 91 94 87 52 58 138 104 51 17 0 0 8 180 115 122 108 223 181 222 536 637 903 919 545 747 901 852 1132 1965 1293 661 560 1283 1595 1369 1207 1474 1216 844 782
129 55 35 45 181 244 347 158 321 275 187 63 2 88 84 122 0 0 0 68 124 118 40 58 89 212 307 436 575 615 785 392 637 675 734 640 740 810 105 143 310 354 691 988 977 694 706 572 389
152 37 60 184 287 285 32 54 233 126 82 43 16 8 52 60 0 0 0 64 127 78 23 56 135 288 403 511 639 781 864 638 417 393 550 395 289 232 226 33 151 445 482 550 489 703 784 745 780
64 107 191 285 393 200 90 25 96 39 58 80 52 0 4 0 0 0 0 0 72 5 22 77 214 285 379 527 714 804 822 1063 270 509 449 517 232 112 258 14 53 347 567 733 704 684 737 1086 1292
217 280 230 374 233 171 197 115 60 34 67 39 52 41 0 0 0 0 0 0 2 0 0 51 208 327 349 407 511 711 757 1060 640 502 614 782 816 635 253 279 317 324 564 528 627 718 831 1045 1168
61 170 132 141 158 125 93 114 128 110 173 15 9 30 0 0 0 0 0 0 3 0 0 72 135 324 283 378 377 426 598 748 718 781 892 1274 1197 898 618 416 580 540 711 702 820 943 677 602 654
32 39 43 119 192 112 26 24 1 63 251 97 29 29 0 0 0 1 0 0 0 0 0 86 409 348 508 346 614 952 395 530 765 1087 1166 1558 1421 1417 840 442 546 881 1083 1263 1172 1049 1018 618 688
103 121 58 81 124 87 1 0 3 87 207 45 33 29 0 0 0 12 0 0 0 9 74 392 451 380 397 367 721 962 988 917 956 971 1137 1374 1296 917 657 423 871 875 946 700 705 846 1125 964 677
27 0 7 37 156 27 0 0 3 109 76 22 60 119 7 0 0 0 0 0 0 76 211 457 391 337 188 359 714 1074 1119 782 877 1014 851 1180 762 897 788 388 413 532 490 405 706 794 536 568 569
0 1 2 81 117 19 0 2 4 3 0 65 65 108 44 3 0 2 0 6 36 89 182 328 264 80 126 369 658 820 938 753 1027 1040 664 1417 1886 1022 795 572 238 145 327 391 350 656 513 566 626
10 1 6 37 119 71 33 0 0 0 0 0 46 160 71 50 0 22 9 3 31 81 114 109 155 61 215 225 806 632 859 909 1140 938 971 1492 1652 1122 1253 1288 1458 294 138 323 238 404 548 464 548
21 14 3 89 44 3 33 0 0 0 0 0 80 183 191 119 40 9 33 20 48 69 87 121 311 69 58 299 1002 1044 1104 1044 1061 648 935 1324 1500 1533 1721 1759 1774 416 0 105 211 247 330 465 375
26 15 16 118 66 34 9 0 0 0 0 0 132 182 229 216 98 35 26 56 56 57 133 266 292 183 71 182 854 927 1244 1018 952 553 869 1295 1395 1698 1896 1841 1679 1340 210 0 0 43 0 1 279
24 19 10 86 39 3 0 11 0 5 19 12 87 217 136 257 280 112 95 85 89 54 151 427 451 308 187 451 765 613 1151 942 787 546 558 1385 1673 1830 1854 1443 1750 1330 951 59 0 0 0 0 0
0 17 16 4 0 2 0 3 0 0 5 37 22 7 105 144 388 287 221 253 186 85 140 500 477 381 280 440 1107 1273 1156 1171 971 567 493 1215 1450 1619 1958 1824 1665 1549 1426 746 337 0 0 0 0
0 0 4 0 0 5 0 1 0 0 0 7 41 64 86 247 444 485 400 393 370 236 144 702 570 404 267 308 609 1007 1590 1554 955 577 569 728 1396 1493 1982 2055 1865 1829 1767 1412 154 43 6 0 0
0 0 0 8 1 0 0 1 0 1 24 0 33 112 156 295 460 547 623 628 497 407 174 723 602 415 303 296 422 716 1105 1415 1364 970 704 859 768 974 1524 2032 2232 2069 2089 1882 1187 967 420 306 102
0 0 0 10 7 0 0 0 0 38 46 65 108 102 293 421 523 552 702 608 623 442 295 398 697 527 447 447 407 435 991 1649 1497 1209 1108 937 1005 875 1001 1705 2049 2245 2300 2184 1818 1759 1036 1110 1087
0 0 0 3 2 5 0 0 0 0 144 258 267 363 306 426 483 670 718 745 613 441 236 215 717 642 592 600 606 435 819 1611 1889 1344 1272 1163 1149 1190 1410 1409 1875 2110 2513 2610 2220 2287 2077 2274 2496
0 0 0 0 0 0 0 0 0 0 114 156 196 1118 730 852 835 776 765 920 763 666 537 426 504 792 737 730 687 628 682 1284 1872 1589 1648 1623 1338 1346 1532 1853 1835 2063 2149 2723 2705 2396 2465 2368 2276

GFSSGP_con_mucape_234.txt.gz
CAPE
9 39 140 310 187 81 24 22 10 18 57 28 13 61 199 372 156 10 407 480 1134 1320 1651 2039 2418 2298 2389 2239 2313 2312 1936 1995 2220 2071 1924 1853 1856 1784 1907 1910 1989 1880 1855 1921 2048 2225 1598 1780 2291
18 154 508 436 92 2 4 7 13 27 29 25 61 113 245 462 343 337 370 831 1176 1358 1615 1866 2406 2664 2396 2451 2270 2246 2183 2074 2232 2038 1926 2110 1971 1851 1596 1690 1668 1554 1804 1897 1929 1782 2204 1491 1656
389 748 361 277 114 1 23 32 15 26 64 92 130 144 275 201 269 284 375 931 1201 1311 1670 1679 2055 2304 2281 2317 2170 2234 2125 2121 2086 1890 1942 2120 1776 1740 1740 1664 1506 1522 1560 1564 1625 1787 1965 1780 1694
621 816 507 287 25 22 41 13 29 28 30 39 77 149 181 207 272 354 669 908 992 1327 1378 2164 2021 2124 2115 2298 1952 2149 2075 2021 2102 2119 2149 1989 1880 1734 1769 1530 1540 1900 1647 1513 1616 1692 1701 1667 1826
377 353 105 111 37 49 46 39 36 43 43 39 48 118 128 244 288 376 594 773 865 1217 1268 1594 2298 2009 2039 1648 1504 1980 1886 1895 1950 1925 1986 1921 1797 1606 1695 1462 1417 1475 1560 1571 1555 1423 1406 1423 1467
378 57 74 29 68 84 62 72 68 61 37 35 66 85 100 149 117 355 514 597 878 1108 1124 1599 2108 1692 1886 1891 1031 1397 1589 1782 1817 1991 1915 1673 1429 1395 1391 1317 1217 1202 1263 1565 1495 1515 1434 1369 1490
444 47 24 187 230 191 82 65 41 2 0 10 42 44 129 125 243 338 425 672 852 790 1113 1316 1337 1271 1356 1037 1234 1474 1528 1630 1633 1520 1403 1242 1035 995 1069 1045 1036 1115 1199 1257 1594 1363 1524 1059 1217
348 91 86 126 203 223 102 40 41 3 0 3 36 44 17 182 315 331 480 579 596 688 976 1027 1004 1201 1108 972 1465 1431 1323 1255 1193 1158 1129 1240 1493 1708 1475 1249 1661 865 984 803 1176 1138 1120 1226 1571
39 30 37 78 103 306 310 44 41 36 2 50 23 46 59 242 244 219 297 387 533 636 861 611 628 1051 1130 977 1011 1430 1345 1361 1377 1303 1395 1458 1246 982 876 1123 1048 962 1205 1070 1131 1226 889 1457 1655
255 0 9 55 97 257 324 203 292 28 7 40 46 116 123 132 140 131 96 88 335 466 640 538 403 646 793 993 1096 1136 1185 1041 1060 1040 1371 921 838 1003 1339 1643 1268 1335 1359 1237 1159 989 1085 1290 1224
311 2 42 95 85 482 229 182 97 56 36 16 18 110 88 62 95 23 13 1 103 224 382 415 330 250 370 482 686 766 938 798 646 617 810 802 1042 1495 895 1206 1645 1317 1494 1329 1364 1441 1067 846 792
68 33 36 52 265 278 196 192 204 235 186 39 18 71 89 73 67 0 0 0 0 70 112 115 51 85 51 32 318 399 738 426 553 690 798 668 1271 751 261 197 598 1195 1068 1022 1019 930 788 552 457
181 92 39 200 231 302 92 103 151 99 75 36 38 67 69 62 0 0 0 0 0 6 5 76 102 158 258 332 392 504 545 329 328 496 695 477 517 160 161 245 267 383 390 507 677 744 692 790 807
66 68 259 366 280 110 40 30 67 59 50 15 27 28 48 59 0 0 0 0 39 0 0 75 182 266 341 387 452 633 736 830 485 413 342 246 68 90 29 164 381 466 417 314 320 378 672 1036 1112
137 161 335 374 171 157 79 18 2 0 0 9 0 1 1 35 0 0 0 1 1 0 10 88 174 250 341 419 547 644 686 903 242 474 575 374 136 105 177 34 93 384 587 598 614 689 723 852 995
97 178 111 153 135 121 104 0 38 26 1 19 19 11 0 2 0 0 0 16 0 0 0 102 165 232 271 406 418 588 643 808 453 490 623 714 695 617 227 277 256 413 608 540 650 808 765 656 634
56 14 78 85 80 175 145 0 137 2 61 58 10 10 0 0 0 0 0 0 0 0 0 44 135 221 217 256 327 439 410 616 498 655 869 1271 1074 992 493 433 515 595 707 843 963 1057 889 597 545
13 51 45 31 58 54 104 17 24 69 150 59 4 0 5 0 0 0 0 0 0 0 0 28 84 202 223 263 612 834 406 342 657 818 1236 1412 1195 1266 619 384 501 819 1014 874 907 839 823 1016 795
48 8 12 18 52 42 7 0 3 83 215 84 17 18 7 0 0 0 0 0 0 0 0 0 161 246 326 285 632 851 949 775 903 981 1039 1146 595 510 393 471 672 721 632 387 708 765 766 646 604
24 12 23 96 118 36 0 0 0 92 132 123 9 13 29 0 0 0 0 0 0 0 0 65 247 290 303 215 532 817 953 709 725 1039 946 814 785 750 444 230 114 337 355 285 498 575 425 485 543
39 4 7 13 98 23 6 0 0 4 180 123 64 23 9 0 0 0 0 0 0 0 12 90 322 282 189 111 382 746 850 725 824 953 724 1435 1696 1206 840 745 615 5 128 201 178 430 590 506 507
42 17 12 100 20 0 9 0 0 0 31 128 0 43 67 47 0 0 0 0 2 28 7 79 238 173 60 66 530 716 775 696 799 1022 676 1295 1551 1149 1123 1188 1391 237 40 178 202 147 297 398 465
28 44 22 37 17 13 0 0 0 0 0 0 0 5 35 144 52 9 1 0 7 29 20 84 149 0 6 161 585 856 658 830 761 851 615 1127 1448 1492 1599 1574 1670 1305 26 0 81 86 109 136 17
0 39 30 37 33 3 0 0 0 0 0 0 0 0 47 142 155 68 24 26 11 17 15 55 58 110 17 123 383 754 1021 1009 877 771 578 1147 1299 1578 1728 1672 1641 1476 930 67 0 6 2 0 0
2 37 27 6 3 0 2 2 0 0 10 0 0 0 68 209 300 190 71 28 75 69 0 114 101 281 113 78 294 614 649 1064 925 871 602 961 1467 1606 1842 1640 1448 1455 1368 1023 404 18 0 0 0
0 10 9 0 0 0 0 0 3 0 1 0 0 0 7 201 308 330 317 192 85 163 93 199 181 199 313 175 469 651 688 670 1042 911 710 417 1190 1406 1674 1861 1780 1677 1583 1407 515 12 0 0 0
0 0 0 2 6 0 0 0 8 0 0 0 0 0 1 127 75 184 387 363 255 254 288 230 279 278 372 312 340 859 1209 1406 1424 1257 965 563 566 919 1462 1818 1939 1859 1876 1768 1721 721 337 104 21
0 0 0 0 0 0 0 0 18 2 0 10 0 1 27 49 70 83 383 403 392 339 354 384 310 293 330 382 345 470 827 1193 1358 1446 984 789 660 786 1020 1548 1928 2120 2058 2018 1985 1405 1269 437 502
0 0 0 0 0 0 0 0 15 0 0 28 8 1 39 138 193 293 413 500 511 505 523 399 413 307 274 331 335 283 492 1028 1259 1334 1375 1237 888 831 973 907 1602 1933 2096 2101 2173 2192 1933 1788 1709
0 0 0 0 0 0 0 0 0 8 2 61 177 158 117 201 274 358 475 537 534 697 625 516 459 459 358 313 287 266 362 915 1266 1453 1455 1183 1176 1084 1118 1360 1419 1673 1955 2226 2231 2398 2349 2181 2216

GFSSGP_con_mucape_237.txt.gz
CAPE
20 11 91 580 723 336 158 98 50 16 24 55 28 86 371 438 158 91 735 789 1051 1349 1703 1856 2499 2249 1990 2110 2106 1992 1677 1648 1709 2176 2003 1778 2040 1990 2113 2160 1952 1959 2322 2117 1993 1747 2584 2618 2540
19 102 660 713 423 124 121 49 11 7 55 31 157 297 404 428 411 538 579 775 981 1308 1595 1423 2461 2530 2082 2183 2146 1822 1960 1790 1837 1836 1880 1781 1759 1808 1920 1893 1994 2070 2044 2094 2294 2014 1536 1943 1947
278 778 835 736 411 71 100 38 35 28 30 51 161 292 258 206 224 392 499 989 1148 1435 1607 1734 1976 2160 2101 2094 1990 1998 1852 1815 1882 1920 1914 1896 1863 1553 1549 1627 1660 1721 1862 1658 1978 1960 1826 1749 1705
976 1123 756 590 81 31 58 35 21 39 66 109 108 134 266 192 282 517 606 932 1092 1420 1424 1781 1787 1931 1978 1967 1882 1857 1970 2064 1930 2009 1864 1784 1717 1772 1867 1849 1743 1599 1679 1709 1870 1597 1804 1919 2045
524 684 560 320 79 23 21 26 36 45 38 48 43 26 91 372 511 384 570 745 939 1163 1423 1559 1738 1986 1859 1797 1826 1765 1735 1879 1975 2034 1907 1651 1663 1577 1568 1620 1798 1890 1838 1809 1675 1654 1662 1711 1805
748 406 271 223 114 20 49 76 34 48 53 51 27 9 150 452 264 280 502 643 852 745 1403 1261 1659 1634 1472 990 1646 1728 1783 1792 1776 1794 1661 1607 1650 1649 1683 1416 1357 1536 1844 1812 1665 1623 1580 1719 1941
377 295 253 308 213 197 125 62 21 2 5 30 41 0 140 163 119 304 480 553 803 702 1360 1580 1201 1629 1370 864 1142 1443 1724 1808 1774 1640 1530 1269 980 887 858 995 1199 1419 1671 1738 1669 1715 1379 1544 1887
275 219 65 143 199 403 155 15 0 0 0 6 1 20 6 129 151 304 463 597 692 605 1009 1188 1259 1274 634 1027 1602 1457 1489 1390 1261 1166 1141 1142 1191 1225 1238 1396 1670 1283 1031 1700 1395 1469 1503 1654 1564
36 100 116 108 226 488 47 39 6 0 0 3 7 25 19 122 185 220 389 458 390 667 953 795 1103 1270 1238 1214 1163 1323 1337 1360 1369 1421 1464 1527 1643 903 928 935 976 1069 1092 1137 1458 1090 1505 1697 1523
177 42 32 116 398 419 121 148 14 0 0 23 100 122 113 121 133 76 91 73 18 329 556 295 701 961 994 896 1482 1604 1537 1614 1730 1849 2043 1579 1731 1645 1032 1033 1059 1233 1220 1304 1337 1086 1660 1502 1222
353 14 17 105 463 325 246 169 38 0 0 0 28 126 109 133 169 90 39 25 170 277 305 262 478 780 699 1024 1350 1385 1527 1350 789 1366 1909 1876 2043 1736 1297 1791 1761 1430 1415 1041 1018 1055 1016 1381 905
141 46 36 53 492 315 256 125 103 150 93 0 41 67 96 153 151 82 19 0 132 255 228 222 318 457 496 510 843 970 1211 965 591 1371 1864 2026 1619 884 901 1328 1688 1593 1455 1723 1459 1154 1314 889 954
262 40 51 93 336 214 180 294 169 237 47 5 80 106 94 127 123 0 0 0 9 19 80 72 243 334 309 453 788 1110 1177 604 1030 1455 1674 1384 1375 344 234 689 938 1075 1163 1091 1144 1217 904 1146 1157
144 117 441 426 310 141 215 151 128 93 29 49 88 102 98 127 63 0 0 0 0 0 0 0 78 272 278 633 931 1267 1188 1406 1020 1289 1264 984 1004 980 171 500 928 986 860 935 963 1110 1195 1313 1357
191 419 467 460 203 146 51 61 23 12 0 48 71 72 83 150 0 0 0 0 0 0 0 29 193 331 439 608 1055 1323 1520 1457 704 1134 808 792 508 992 706 476 944 1257 1193 1291 1446 1497 1495 1545 1702
158 151 167 291 213 185 105 111 73 18 5 22 72 66 70 114 0 0 20 8 31 0 38 170 148 284 427 898 1292 1318 1463 1586 792 1021 1121 1148 946 1250 1160 722 843 1185 1191 1429 1390 1573 1675 1730 1627
71 43 89 113 296 326 200 87 137 56 1 11 9 31 17 41 0 0 0 46 60 99 138 213 324 377 623 1157 1082 1437 1662 1481 677 772 1538 1473 1387 1591 1120 966 1189 1713 1543 1589 1603 1790 1835 1640 1549
0 9 62 12 151 242 422 282 88 96 57 142 10 0 0 1 0 0 0 0 104 91 172 261 388 656 998 967 1418 1594 1281 1255 1395 1445 1903 2288 1973 2150 1527 1148 1444 1864 1952 1993 2033 2254 2002 1995 1869
28 0 0 0 100 128 167 149 68 177 60 162 32 0 0 0 0 0 0 0 7 84 81 233 567 1012 1062 1083 1635 1907 1304 1306 1573 1810 2015 2118 2369 2336 1702 1286 1495 1768 1981 1655 1999 1886 2153 1670 1445
6 24 0 71 111 45 1 6 0 69 111 154 76 10 5 0 0 0 0 0 0 95 115 284 686 1156 1214 1302 1653 1703 1927 1712 1735 1895 2036 1986 1600 1706 1537 1574 1707 1761 1504 1513 1595 1379 661 999 1118
22 12 14 1 114 44 3 0 0 40 208 281 169 70 4 0 0 0 0 0 0 45 188 253 859 1226 1274 1307 1459 1653 1823 1756 1711 1904 1712 1630 2346 1947 1555 1084 999 1506 1437 1028 1344 1205 875 894 484
41 30 31 57 20 0 16 0 0 0 235 370 339 123 56 4 0 0 0 0 0 0 150 302 895 1296 1198 1337 1590 1959 2458 1524 1475 2018 1765 2042 2610 2523 1943 963 1182 1390 751 1007 592 262 455 425 688
9 48 22 35 14 10 18 2 0 0 0 318 359 292 145 86 6 2 0 0 0 0 46 290 932 1172 1215 1143 1812 1859 1853 1828 1738 1833 2084 2394 2865 2019 1405 1235 1566 1615 740 960 659 606 508 82 145
11 61 31 21 1 1 0 0 0 1 2 4 320 262 188 130 102 12 13 0 1 19 66 203 924 1237 1188 1148 1577 2327 2264 2023 1850 1839 1785 2038 2395 2321 2680 2590 2862 2277 1096 528 565 538 415 333 192
0 37 22 6 6 0 0 1 0 0 0 5 37 169 15 109 142 170 23 0 27 66 135 226 875 1026 847 929 1365 1954 2444 2531 2438 2322 1842 2381 2210 2431 3045 3078 3132 2668 1820 1572 672 524 202 104 83
0 0 6 0 0 0 1 0 0 0 0 0 0 1 0 0 138 65 225 84 107 115 250 309 693 1261 849 856 1602 2000 2275 2054 2193 2369 1845 1693 1977 2322 3155 3300 2937 2847 2510 2208 1714 988 356 80 40
0 0 0 0 0 0 0 0 0 0 0 0 0 0 8 13 66 35 254 246 132 183 508 347 828 1243 1037 1002 1270 2070 2279 2179 1987 2247 2225 1752 1901 2063 2609 2859 3226 3128 2828 2587 2157 1747 1249 1039 983
0 0 0 0 0 0 0 0 0 4 1 6 40 2 25 59 318 257 313 394 301 220 291 384 765 1321 1013 1185 1340 1763 1916 2294 2506 2585 2339 2023 1911 1898 2088 2727 3217 3355 3291 3300 3102 2712 2243 2065 1413
0 0 0 0 0 0 0 0 0 19 7 0 3 49 64 221 394 392 357 445 459 513 374 372 569 904 997 1543 1664 1853 1755 2093 2562 2590 2637 2357 2255 2187 2213 2429 2887 3295 3443 3488 3503 3369 3136 2886 2705
0 0 0 0 0 0 0 0 0 3 4 32 210 220 136 416 385 492 201 246 278 503 524 455 776 1012 1371 1649 1805 1541 1449 1748 1959 2427 2573 2658 2641 2484 2281 2342 2429 2591 2750 3067 3424 3406 2974 3317 3262

GFSSGP_con_mucape_240.txt.gz
CAPE
3 38 212 1177 1349 1052 151 131 40 25 28 33 39 297 740 725 430 514 886 877 969 1350 1623 1627 1868 2111 1971 1660 2095 2117 1741 1493 1983 1977 2077 2165 1917 2133 2144 2011 2336 2447 2237 1902 2115 2012 2088 2227 2229
11 169 1190 1543 1062 203 261 80 73 90 88 48 318 566 764 619 360 480 596 715 848 1048 1487 1459 2097 2238 1983 2055 1820 1665 1803 1829 1905 1698 1688 1866 1932 2041 2081 2187 2094 2191 2286 2115 1667 1958 2093 2089 2169
356 901 1509 1441 533 116 249 77 61 106 42 241 504 663 587 387 216 289 454 640 757 881 949 1724 1767 1898 1977 2083 1971 1958 1810 1840 1651 1924 1928 1744 1711 1884 1822 1773 2020 2179 1987 2154 2161 1689 1748 1677 1892
1487 1697 1576 1426 261 248 279 131 47 58 59 211 470 433 210 134 242 281 543 557 781 828 1282 1755 1892 1960 1925 1794 1886 1930 1893 1830 1898 1829 1768 1868 1896 1863 1723 1678 1883 1926 1974 2013 1846 1882 1937 1753 2128
1180 1207 924 528 353 265 138 130 130 118 159 208 171 42 63 322 275 280 480 459 656 629 973 1451 1722 1954 1914 1851 1815 1838 1871 1994 1887 1908 1658 1710 1568 1622 1795 1813 1935 2018 1946 1854 1808 1937 1982 1926 1713
1466 1049 740 455 303 206 310 262 271 225 259 90 45 26 349 251 146 241 306 354 237 763 882 1325 1723 1720 1785 1763 1715 1745 1889 1935 1866 1771 1811 1656 1784 1677 1629 1569 1908 1961 1946 1750 1901 1923 1944 2050 1778
1101 864 553 486 266 377 441 187 241 225 134 91 20 0 168 123 85 166 242 251 225 405 536 957 1223 1719 854 1513 1561 1764 1824 1718 1798 1624 1457 1271 1082 1079 1173 1334 1584 1847 1776 1849 1872 1662 1937 1951 1989
679 794 702 661 439 651 106 42 0 0 48 31 0 0 102 95 90 117 166 207 203 640 793 551 954 564 246 577 1408 1670 1638 1567 1364 1178 1059 1093 1135 1290 1201 1403 1559 1600 1890 1704 1794 1595 1935 1749 2099
32 643 629 220 411 619 172 202 15 5 0 0 15 0 0 52 45 57 101 152 213 331 247 219 593 442 782 867 1229 1205 1210 1220 1268 1412 1474 1239 1014 1108 1001 1411 1303 1140 1370 1517 1339 1621 1843 1664 1707
206 107 285 623 668 592 220 206 0 32 60 56 35 0 0 0 2 20 25 40 70 227 132 155 297 415 500 394 919 1411 1301 1454 2075 1585 1509 849 1074 1330 1046 1189 1176 1271 1223 1550 1223 1585 1652 1811 1166
432 18 61 520 645 249 303 282 0 48 135 135 92 29 0 0 0 0 0 0 0 50 34 113 385 588 673 958 1208 1316 1411 1596 1736 1964 1950 1606 1126 1543 1337 1155 1202 1267 1407 927 914 1119 1146 1200 998
360 13 24 293 682 626 671 67 43 44 208 0 29 23 0 0 0 0 0 0 0 0 0 46 364 723 838 981 1147 1337 1458 1384 1036 1713 1977 2690 1776 1246 1400 1772 1353 1371 1200 1185 977 1083 1319 1122 1374
409 154 146 340 628 656 545 361 347 501 10 0 0 1 0 0 0 0 0 0 0 0 0 104 353 567 723 978 1193 1511 1195 1059 1440 1608 1881 1481 1153 1191 955 1297 1265 1246 1260 1115 1135 1273 1260 1532 1409
243 300 453 532 694 617 723 624 595 384 28 16 0 4 36 1 0 0 0 0 0 0 3 77 183 481 679 965 1576 1550 1317 1504 1289 1520 1479 1603 708 992 1178 1032 901 989 781 746 950 1159 1495 1438 1207
431 633 695 764 537 463 370 363 289 447 93 37 4 0 50 31 3 0 0 0 0 0 0 51 358 704 1013 1381 1495 1386 1485 1396 1266 1538 1777 1441 1126 1372 1236 1097 839 767 1062 1311 1608 1707 1549 1396 1229
350 440 382 828 570 511 362 326 166 122 147 76 14 1 27 67 0 2 0 0 0 0 71 312 328 742 1040 1230 1394 1360 1509 1394 1136 1299 1284 1442 1444 1643 1172 1301 1441 1462 1500 1438 1505 1610 1594 1515 1240
204 168 89 197 516 527 410 367 535 202 256 358 97 30 10 60 5 4 0 0 0 18 392 660 739 759 1002 1702 1459 1509 1867 1646 1327 1499 1414 2017 1833 1646 1168 1012 1469 2163 1541 1475 1542 1638 1779 1305 1205
21 67 45 16 146 308 536 361 493 327 199 567 249 67 5 20 6 0 1 5 0 165 595 881 1016 1069 1480 1550 1691 1108 1249 1533 1409 1525 1817 2369 2062 2185 1673 1378 1890 2081 1522 1635 1675 2210 1712 1791 1323
11 61 60 0 49 200 273 280 284 488 279 325 481 144 43 18 0 0 1 39 95 271 627 949 1130 1614 1679 1472 1350 1444 931 1199 1515 1814 2467 2727 2321 2371 2277 1543 2148 2277 1859 1921 2777 2475 2611 1211 1716
34 59 68 9 56 85 14 12 45 201 491 436 659 284 81 2 0 0 0 16 138 310 601 955 1200 1836 1738 1419 1549 1704 931 1119 1463 1708 2278 2095 2224 2261 1990 1464 1871 2129 1892 2241 2627 2589 1095 1225 1784
55 41 86 57 28 33 16 43 3 7 371 401 779 470 236 11 0 9 13 0 53 238 518 816 1299 1744 1792 1483 1927 1693 1925 1670 1824 1942 1567 1703 2024 2120 1611 1922 1641 2438 1939 1426 2282 2315 2036 1054 1546
77 58 47 29 43 68 4 78 41 104 364 534 658 535 383 203 1 2 30 23 9 116 323 609 1231 1749 1958 1993 2123 1828 991 1136 1159 1680 1601 1699 1688 2242 2501 1724 1757 2077 1044 1088 1609 1597 1871 1920 1144
27 90 54 44 53 36 11 2 72 87 253 466 667 656 558 438 103 13 23 82 28 0 172 428 1106 1787 1793 2114 1947 2207 1669 1094 1230 1269 2229 2278 2543 2520 2396 2185 2327 2804 1527 1316 1564 1562 1749 1064 974
23 39 29 31 66 64 25 6 23 49 59 215 588 714 601 640 434 71 18 50 146 78 56 277 1274 1898 2062 2090 2083 2267 2072 1826 1457 1889 2218 1874 1644 2141 2645 2367 3058 3258 2309 1697 1442 1837 1863 1642 1276
21 66 59 53 74 58 58 0 20 4 0 24 309 704 621 657 687 480 113 44 94 148 204 231 897 1660 1823 2013 1781 2044 2275 2433 2579 2644 2051 1870 1480 1364 2950 3358 3622 3343 3365 2627 1860 1507 1158 1370 964
4 27 52 34 36 35 50 0 0 0 0 0 66 399 575 537 735 754 493 274 191 179 263 444 828 1527 1599 1692 1762 2290 2622 2064 1991 2814 1736 1928 1382 1324 2422 2921 3027 3186 3270 3221 3065 1986 1663 1037 648
0 3 1 37 51 29 40 1 0 0 0 0 42 107 503 423 529 725 728 566 423 422 442 575 882 1453 1555 1489 1651 2110 2997 3027 2260 2323 2771 2119 2257 1785 2579 2323 2584 2933 3386 3393 3361 2617 2423 1433 1185
0 0 0 3 1 0 27 9 49 11 0 3 0 3 127 352 294 417 683 758 601 566 628 757 749 1616 1400 1339 1308 1583 2099 2600 2558 2818 3236 2582 2367 2544 2358 2696 2555 2632 3151 3521 3655 2900 3095 2726 2190
0 0 0 0 0 12 13 6 0 5 0 0 2 4 58 183 235 344 542 549 720 591 679 862 893 1352 1279 1598 1772 1920 1756 2222 2472 2398 2573 2872 2922 3067 2547 2895 3028 2991 3007 3598 3960 3733 3019 3409 3084
0 0 0 0 0 0 2 2 17 3 7 121 285 740 369 224 329 422 691 632 816 875 862 903 991 1024 1786 2397 2846 1797 1442 1808 2130 2396 2268 2779 3074 3171 3128 2902 3069 3111 3201 3324 3838 3840 3301 3553 3483

GFSSGP_con_mucape_243.txt.gz
CAPE
0 63 713 1358 2078 1515 108 76 108 89 126 127 242 439 571 705 915 743 784 647 932 1201 1177 1262 1900 1844 1910 1765 1864 1615 1329 1925 1948 2062 1985 1905 2140 2169 2211 2343 2491 2643 2299 2196 2121 2249 2188 2193 2172
101 365 1169 2235 1693 116 73 89 118 139 143 506 588 533 301 196 299 384 483 502 1028 804 1254 1427 1655 1874 1593 1940 1888 1560 1392 1777 1774 1655 1750 2077 2142 2174 2136 2097 2137 2205 1948 2051 2064 2080 2044 2159 1898
592 839 1974 1824 711 107 53 108 187 149 342 461 744 608 266 82 95 248 318 503 762 1002 1073 1625 1837 1903 1805 1767 1945 1944 1937 1646 1780 1835 1936 2024 1924 1978 2007 2131 2016 2089 1951 1819 1647 1590 1662 1936 2130
1216 1849 2035 1228 261 89 99 159 254 149 213 515 519 125 66 91 147 189 224 330 387 824 1004 1682 1748 1661 1771 1996 1902 1776 1874 1832 1786 1823 1735 1718 1698 1822 2069 2119 2050 1759 1951 1764 2102 1814 1995 1894 1192
1347 1660 1262 1016 333 268 225 244 199 201 264 363 195 45 80 147 117 176 183 209 466 815 956 1564 1849 1860 1844 1875 1946 1727 1949 1774 1992 1919 1871 1790 1885 1773 1785 1769 2021 2162 1969 1933 2057 2008 1914 1243 1275
1933 1462 801 259 267 243 288 342 226 329 362 244 33 61 122 99 107 134 139 193 312 258 1053 1339 1898 1872 1863 1879 1878 1683 1835 1851 1775 1654 1655 1755 1511 1822 1889 1968 2027 1904 1886 2146 2052 2113 1826 1669 1341
1132 1200 987 353 634 358 549 482 266 153 144 140 57 108 40 83 50 89 146 159 237 475 590 844 1160 1558 1788 1772 1841 1824 1701 1751 1739 1655 1570 1705 1785 1518 1489 1840 1931 1833 2000 1956 1911 2084 1929 2000 1809
1228 855 492 330 528 840 437 110 4 13 193 43 56 39 0 47 45 43 132 129 165 283 260 560 688 179 945 1214 1727 1587 1644 1654 1495 1202 954 929 937 992 1313 1791 1956 1849 1978 1922 1740 1957 1826 2181 2001
448 650 663 694 497 728 439 228 23 0 11 5 1 0 0 13 8 27 74 117 379 372 217 273 311 383 666 755 1507 1393 1196 1117 1119 1266 1378 1308 990 1384 960 1875 1415 1867 1597 1617 1694 1749 1704 1967 2322
734 695 535 661 663 570 510 264 27 7 0 0 0 0 0 3 2 20 24 56 115 108 95 285 134 351 443 194 933 921 1074 1643 1486 1353 1512 1575 2125 2043 1287 1444 1374 1258 1595 1385 1357 1616 1801 1906 1282
511 246 443 692 995 516 450 169 113 257 289 13 0 0 0 0 2 13 22 10 76 76 139 249 312 334 402 665 1221 1102 1364 1431 1474 1534 1475 2396 1406 1717 1004 1065 1090 1104 1442 753 831 796 1613 1446 716
300 96 407 792 801 741 661 550 197 510 46 4 0 0 0 0 2 3 14 4 9 25 94 272 392 917 1132 1089 1262 1026 1353 1531 1151 1808 2141 1557 1281 1723 1457 1046 1182 1055 1451 811 790 884 1167 863 754
408 86 273 474 702 908 840 693 670 505 0 0 0 0 0 0 0 0 2 5 3 0 21 385 557 1055 1009 1686 1696 1436 511 929 1283 1339 1342 1612 1452 1821 1747 1388 997 1050 1062 1024 863 1359 1477 1070 892
447 294 397 501 730 788 774 811 627 406 0 0 0 0 0 0 0 0 0 4 8 0 0 389 661 853 916 2282 1369 1283 1558 1168 1437 1287 1596 1150 1030 1691 1278 1361 1069 819 807 841 816 1427 1549 1234 700
228 402 492 557 642 632 576 629 414 432 24 0 0 0 0 0 0 0 0 3 6 5 49 306 411 850 1210 1670 1721 1827 1097 1275 990 1790 1554 1539 1578 1581 2339 831 687 588 1105 1114 1714 1831 1164 779 796
207 288 314 482 463 604 401 423 914 601 270 0 0 1 7 5 0 0 0 0 0 3 55 207 260 823 1139 1538 1410 1757 1395 911 1025 1089 1484 1474 1648 1527 1974 942 598 955 1264 1181 1034 1501 830 825 770
167 72 481 480 223 721 407 559 795 489 471 44 0 0 3 11 0 0 0 0 0 1 237 479 584 712 978 1459 1468 2780 1845 1728 1120 1179 1384 1660 1486 1646 1271 916 1734 2150 1283 1666 998 833 1469 837 863
119 122 20 235 124 174 330 316 566 399 326 300 11 0 3 9 4 0 0 0 0 30 526 720 681 947 1227 1324 1902 1345 1361 1478 1102 1300 1875 2004 1735 1717 1716 1264 1911 2513 1124 1472 1397 2901 952 1743 1052
49 62 85 60 32 211 199 285 490 482 198 355 156 1 0 6 3 0 0 0 0 202 679 946 1013 2146 1665 1184 1050 1070 1631 1681 2414 2566 2087 2196 1970 1981 2105 1385 1749 2825 1464 2942 1871 1539 1417 1020 1061
38 61 84 35 27 59 200 112 110 690 476 209 329 33 1 0 2 1 49 68 42 315 786 1025 1172 1718 1619 1093 1367 2249 2408 1542 1708 1846 2120 2067 2027 2226 1808 2382 2016 2231 2276 2228 2342 2234 1478 897 1553
86 83 85 83 60 42 31 34 39 171 572 572 553 445 173 0 0 0 37 116 142 473 798 1078 1361 1778 2172 2002 1379 2325 3184 1679 1322 1754 1446 1568 1882 1934 1709 1729 1823 2284 3215 1751 2468 2271 1924 1734 1249
68 88 78 10 56 54 78 60 138 106 370 627 791 597 373 114 1 1 0 72 168 417 692 1079 1605 2395 1897 2552 2359 3247 2097 1159 596 938 1029 1463 1817 1842 1804 1735 1779 2116 1450 3738 2185 1790 2391 2236 1642
29 53 98 96 63 71 78 25 72 226 190 523 561 919 540 615 3 0 19 2 75 261 534 923 1698 2495 2943 2826 2717 2332 2148 1017 976 829 3167 2964 2792 1811 1524 1976 2225 2806 2202 1295 2020 2007 2451 1797 1319
8 18 42 79 64 85 86 91 111 302 281 316 593 592 853 599 344 19 3 35 42 90 265 693 2515 3117 2912 2656 2544 3833 3454 2468 831 1570 1624 1447 1950 2058 2105 2214 2949 3222 2488 1669 1682 2128 2438 2484 2264
6 40 64 88 70 53 78 77 84 55 42 175 482 773 776 757 605 166 18 38 99 87 184 349 1968 2695 2372 2143 2271 2738 3411 3600 3351 2644 1580 2093 1054 1190 4158 3452 3697 3219 3494 2828 2214 2319 2342 2223 1873
1 30 60 92 75 59 67 49 79 33 35 28 269 652 670 627 838 590 77 64 126 228 173 225 1714 2759 2691 1974 2908 3333 3687 2159 2223 2998 1646 1165 883 1008 4434 3419 2895 2830 3269 3242 3324 2202 1334 2333 1505
0 3 1 79 85 80 72 62 73 39 0 41 97 408 731 546 586 828 452 85 219 191 350 308 1347 2147 2408 1831 2883 3487 3604 3601 2012 3251 3953 2297 2768 1398 2318 2672 2678 2492 2748 2989 3336 2818 2552 1938 1869
0 0 33 54 85 84 87 43 92 67 24 10 121 206 556 707 507 676 893 462 144 99 206 359 573 1511 1574 1386 2566 2872 3184 3657 3535 3984 3705 3374 3218 2149 2734 2407 2498 2537 2506 2869 3413 3420 3464 2831 2249
0 15 40 27 32 59 85 90 62 68 89 40 35 28 140 632 629 513 674 901 605 244 196 337 524 1064 1805 2199 2321 2795 2327 3011 3345 2647 3186 3428 3319 3878 2995 3122 2740 2541 2494 2697 3821 4175 3288 3628 3158
1 5 12 26 6 19 54 91 56 131 93 26 73 488 266 158 609 498 511 660 1036 775 416 448 905 1083 2257 2792 2889 2304 1977 2647 2402 3492 3334 2988 3475 4010 3288 3313 3677 3225 3147 3903 4141 3194 3002 3203 2855

GFSSGP_con_mucape_246.txt.gz
CAPE
1 11 447 1137 1178 1515 91 49 46 36 58 213 150 78 348 383 502 305 486 900 862 992 1161 1612 2325 1920 1690 1655 1954 1762 2072 1750 1917 1843 1905 2648 2947 2348 1883 2558 2181 2286 2398 2113 2236 2250 2176 2088 2010
76 408 1131 1520 1542 321 36 121 110 76 312 313 262 63 118 154 240 408 823 842 858 805 1088 1120 2100 2349 2081 2013 1669 1470 1774 1773 1819 1933 2065 1890 2546 2686 2096 2209 2304 2534 2330 2239 2011 2163 1884 1881 1785
243 770 904 1036 1016 49 45 88 62 188 400 394 263 50 44 54 91 189 686 579 664 941 1122 1482 1654 1844 1684 1532 1967 2174 1757 2074 2000 1812 2040 1919 2083 2157 2113 2092 2143 2655 2304 1823 1527 1761 2082 2052 1708
925 1493 1450 666 183 76 48 32 64 217 315 164 55 9 33 88 51 98 148 255 735 689 992 1936 1788 1699 1830 1822 1747 1957 1915 2167 2174 2354 1896 1761 1911 2305 2074 2391 2050 2411 1984 2121 2003 1987 1618 998 1248
1361 1334 1022 853 102 74 77 19 69 104 223 47 4 13 37 46 19 56 249 479 655 610 904 1371 2174 2091 2139 1963 1749 2053 2036 1938 1787 1936 1877 1684 1865 2363 2606 2621 2158 2571 2224 2359 2503 1794 1203 1173 864
1706 505 444 189 309 97 227 90 158 198 65 4 0 1 2 6 7 43 46 334 96 431 773 1194 1728 2026 2128 1829 1831 2010 1929 1812 1756 1702 1727 1718 2022 2099 2138 2561 2167 2307 2208 2718 2744 1752 1525 1261 983
1336 620 515 194 147 237 292 301 110 33 16 9 19 0 0 18 12 48 155 84 534 301 485 1220 1322 1655 1785 2069 1819 1897 1799 1843 1735 1631 1718 1825 2046 1836 2093 2514 2426 2171 2086 2353 2059 1909 1902 1638 1334
1126 471 411 287 485 251 240 7 8 50 28 8 0 2 0 1 8 65 154 216 180 133 259 820 1305 1274 1378 1472 2006 1790 1823 1580 1400 1312 1314 1398 1214 1416 1830 2451 2390 2090 1885 1842 1971 1840 1939 2042 1848
483 463 398 479 500 270 77 40 0 0 0 16 4 0 0 6 13 25 95 48 213 230 431 405 218 1327 1572 1608 1503 2013 1422 1156 1002 946 992 1384 952 1073 1133 2254 2349 1804 1828 1736 1681 1664 1814 2271 2462
633 22 16 469 543 470 304 14 0 0 4 0 0 0 0 2 20 14 65 104 118 80 148 46 168 471 708 238 1479 709 1005 1079 1528 1676 1619 2368 1937 1544 1419 1347 1579 1630 1474 1427 1546 1627 1824 1883 1048
505 84 513 654 449 493 164 125 154 28 0 0 0 0 0 0 22 19 14 91 62 16 70 27 164 623 144 1035 1027 1199 1497 1855 1622 1009 764 1809 1794 1489 1273 1448 1045 1557 1600 955 973 1249 1278 1420 1463
410 97 727 559 419 640 651 330 370 205 9 0 0 0 0 1 12 30 14 21 37 64 126 86 396 650 1052 634 1657 1619 528 1347 1604 1922 1917 2537 2085 2408 1301 1201 1599 1732 1485 1254 1448 764 2006 1202 1035
350 313 257 736 716 804 604 490 784 11 0 0 0 0 0 4 11 33 16 29 23 65 332 593 1098 1260 1361 366 1112 784 296 934 1942 1235 2244 1642 2101 2878 2181 1925 1517 1175 1711 1730 1493 1651 2506 1988 1499
225 220 338 649 800 576 411 517 822 12 0 0 0 0 0 2 3 9 7 23 16 23 621 388 1199 1851 2193 1745 1798 513 614 684 1208 841 1686 2045 1404 2335 2584 2679 1991 1513 2090 1577 2240 2112 2124 1720 934
137 301 485 401 337 305 487 448 621 18 0 0 0 0 0 0 0 3 0 48 10 52 387 810 881 1134 2168 2617 2740 2453 1642 1321 1943 1989 2653 2441 2203 3004 2601 2738 1910 2061 2732 2832 2787 3105 2282 2176 840
190 243 312 302 348 490 412 416 531 98 2 0 0 0 0 0 0 0 5 18 90 55 759 718 400 978 1800 2489 2650 1186 1360 1231 1860 1782 2002 2892 2344 3164 3355 1777 1883 2008 2115 2294 2347 2580 2208 2306 1633
125 305 407 153 88 644 138 652 542 366 12 1 0 0 0 0 0 0 0 1 10 411 822 774 1280 1087 1505 3110 999 1980 2808 1960 1619 1632 1763 2863 2357 2399 2673 1844 2366 3017 2102 2104 1799 2079 2493 1541 2413
140 208 326 276 106 425 119 643 740 506 344 5 0 0 2 0 0 0 0 0 0 351 923 1353 1312 2017 2458 2090 2712 2696 2811 2104 1677 1625 1741 2433 2358 2758 3485 2449 2843 3438 2535 1789 3162 3807 2996 2907 2155
127 44 27 304 240 171 102 813 773 481 257 214 0 0 1 3 0 0 0 0 0 280 1020 1769 2420 2574 2475 2261 2048 2443 1116 2916 1669 2152 2290 3384 2565 2580 3645 2686 2950 3445 2985 3610 3223 2133 1919 2486 3006
13 1 15 24 50 19 66 143 669 576 298 494 80 3 0 9 6 0 0 0 0 465 1183 1690 2520 2411 2789 1939 1826 2997 3075 1933 2550 2281 3079 3304 2845 3151 3310 3267 2860 3353 3824 3553 2863 3875 3634 2823 2637
6 26 20 64 63 19 14 192 346 662 486 498 397 101 1 8 7 42 8 21 22 619 1290 1653 2443 2385 2792 2328 3072 2765 3517 2785 2293 1252 2749 2410 3707 3171 3851 2795 4027 3786 4325 3394 3871 3409 3505 2821 3353
8 18 55 69 92 149 53 0 28 439 506 548 552 300 15 5 19 118 133 278 101 705 1231 1755 2626 2254 2378 3952 3139 3176 2241 1926 1144 1773 1996 2342 3212 3040 3343 3175 3850 3586 3790 3168 3856 3039 3449 3441 2699
1 9 63 49 45 68 57 126 103 135 404 654 691 533 363 99 6 36 19 330 261 650 963 1779 2541 2558 2522 3715 2994 2970 2090 1452 2414 1505 2429 2302 3494 3447 2280 3098 3214 3732 3548 3695 3039 3700 3325 3412 2754
0 0 11 68 62 48 57 42 44 301 209 446 919 996 731 516 74 15 42 285 348 593 871 1624 2328 2825 2882 3258 3064 3351 2563 3633 2025 1369 2570 1996 2365 2992 2589 3124 4163 4451 4118 3084 2816 3622 3568 3775 3725
2 9 11 42 65 37 45 27 191 107 245 207 437 1089 957 503 310 47 102 183 208 451 739 1515 1975 2563 2651 2702 2788 3213 3412 3729 4061 3321 2021 1751 2174 2183 3255 3906 4547 4103 4386 4178 3268 3705 3633 3847 3299
8 8 45 54 69 70 89 29 71 124 153 90 422 696 1127 753 519 175 129 251 248 375 700 1225 2145 2296 2609 2793 2742 3237 3870 3219 3500 3208 2183 2444 1554 1926 3481 4095 4184 4204 4214 4385 4360 3836 2894 2599 2809
0 56 0 23 46 78 41 37 94 50 13 41 303 639 1066 1084 806 647 188 242 319 346 538 828 2101 2357 2637 2609 2904 2903 3621 3283 3557 3486 4086 3413 3853 3187 4046 3988 4114 3992 3674 4168 4585 3757 3252 3689 3029
1 5 41 32 41 49 48 134 13 196 16 7 34 565 893 867 869 608 518 276 291 302 474 685 1720 1933 2408 2424 2693 2915 2956 3235 3331 3771 3675 3171 4292 4035 3711 3813 3593 4102 3897 4155 4350 3878 4282 4099 3477
11 1 3 25 9 31 115 57 138 451 85 27 67 612 1036 1012 672 909 918 436 326 255 314 392 877 1888 2337 2358 2589 2784 2853 2934 3252 3179 3950 3747 3883 4295 4276 4027 3681 3811 3879 4014 4333 4184 4019 4086 3854
2 0 0 27 47 35 41 35 140 173 65 62 34 398 515 891 906 703 1000 665 438 336 289 439 567 1536 1887 2301 2613 2750 2849 2712 2589 3048 3473 4200 4059 4322 3942 4072 4279 4202 3911 3948 4048 3503 2319 3712 3834

GFSSGP_con_mucape_249.txt.gz
CAPE
0 82 337 692 665 735 67 51 160 176 101 70 87 126 188 277 202 306 811 770 1160 1238 1491 1954 2530 2313 1884 1700 1998 2832 2473 1909 1834 2120 2455 2140 2183 2538 1882 1697 2113 2100 2105 1899 1916 1643 1949 2038 1585
177 230 957 846 483 58 51 155 142 65 78 65 48 95 195 281 366 669 715 716 798 987 1141 1467 2480 2402 1693 1907 2253 2393 2249 1945 1842 1934 2283 2232 2193 2348 2630 2151 2325 2565 2524 2377 2060 1899 1756 1606 1512
421 847 246 442 378 49 40 182 299 284 69 72 0 0 10 175 456 461 450 496 650 745 887 1462 2072 2190 1684 1446 2539 2377 2255 1975 2163 1994 2036 2244 2511 2709 2635 2509 2154 2523 1866 1775 1916 1984 1898 1662 1361
1232 1069 899 680 241 48 92 130 191 157 60 49 0 0 48 238 253 181 421 699 720 940 1240 2020 2138 1632 1907 2009 2542 2234 2236 2169 2254 1747 1917 2496 2137 2583 2560 2257 2638 2434 2233 2221 1834 1328 977 1111 1214
1153 635 468 261 25 71 124 192 59 24 2 33 0 0 0 109 132 261 422 561 631 995 1205 1466 2397 2065 1712 1804 1850 2423 2125 2496 2372 2209 2114 2198 2380 2438 2496 2167 2176 2192 2177 1915 1468 1124 920 732 827
963 71 70 171 140 49 184 110 67 22 14 0 0 0 0 17 125 258 291 475 543 820 1047 1238 2058 2249 1857 1868 1800 1942 1839 1961 1830 1882 1839 1905 1956 2530 2829 2680 2236 2109 2221 2093 1582 1328 1084 939 842
556 193 196 290 293 330 258 127 5 0 0 0 0 0 0 13 112 142 152 251 419 722 810 1142 1345 1510 1730 1813 1757 2163 1696 1662 1792 1670 1925 2166 2142 2115 2179 2568 2784 2150 2048 1983 1853 1747 1566 1303 1014
218 1 276 210 595 282 234 42 21 0 0 0 0 0 0 19 38 47 173 203 388 472 744 1004 1166 1180 1299 1369 2095 2131 2370 1567 1539 1683 1770 1672 1771 1957 1827 2495 2792 1923 1885 1873 1690 1673 1729 1926 2136
415 184 31 173 564 233 25 32 13 0 0 0 0 0 0 16 23 37 75 89 57 328 633 666 781 974 1112 1294 1398 2219 1575 1369 1233 1044 1181 1597 852 1086 1424 1966 2176 1905 1772 1650 1644 1562 1857 2540 2779
424 14 1 57 288 267 54 3 0 0 0 0 0 0 0 19 21 14 4 11 63 151 84 471 614 795 731 915 1212 1001 759 587 477 617 640 618 535 842 1168 1675 1712 1654 1639 1598 1521 1897 2260 2149 1387
146 17 222 110 255 366 5 131 70 0 0 0 0 0 0 6 19 17 7 24 89 86 47 44 474 415 489 545 915 527 580 889 874 769 771 805 918 1313 857 1002 1309 1197 1393 883 1347 1269 1474 1209 1007
66 238 310 260 542 470 489 380 75 28 9 0 0 0 0 1 0 10 21 1 5 38 12 75 103 203 278 532 587 524 806 791 475 325 470 742 918 804 693 634 521 624 717 847 432 545 669 782 1025
77 352 337 517 718 592 647 499 68 0 0 0 0 0 0 0 0 1 13 6 11 33 89 310 703 367 226 367 579 388 469 635 650 642 889 951 784 746 332 579 652 562 597 916 726 726 1079 984 736
141 66 233 778 808 636 814 594 100 0 0 0 0 0 0 0 1 4 2 3 29 119 145 461 756 245 246 27 17 319 298 558 654 657 1013 867 1298 1068 1059 880 811 629 673 869 936 862 886 1032 1012
99 49 212 462 399 397 494 526 88 16 0 0 0 0 0 0 1 1 0 0 13 118 294 486 670 987 1120 433 469 188 417 624 455 572 993 928 760 982 1132 982 1052 716 1288 901 1107 1266 1467 1579 1018
96 199 139 249 187 333 312 356 647 85 0 0 0 0 0 0 0 0 0 1 0 64 244 215 498 722 936 947 848 760 670 733 1033 1459 1169 1136 1082 1115 1190 728 719 482 473 562 667 783 1056 1325 774
88 89 297 223 44 443 396 358 527 20 0 0 0 0 0 0 0 0 0 0 0 36 93 72 314 461 1006 1176 1285 1072 982 1120 1065 918 1375 604 831 1439 1814 453 483 495 469 784 996 1131 1345 572 654
17 69 318 315 145 102 538 557 491 64 56 0 0 0 0 0 0 0 0 0 98 48 47 233 267 286 1179 1299 782 1157 1736 1176 1061 898 1068 1237 1271 1392 1847 1721 674 903 1706 2154 2064 1112 706 1172 1533
13 5 142 130 2 105 27 554 508 185 127 29 0 0 0 0 0 0 0 0 102 55 12 417 462 508 897 1205 1238 1402 1196 1680 1092 974 1082 1081 1394 1498 2261 1455 1350 2109 2067 1998 825 489 501 719 1359
0 4 6 22 176 119 137 608 552 417 299 230 41 0 0 0 0 0 0 0 19 71 52 846 862 1378 661 801 1283 957 1096 1449 1194 1188 1170 1982 1292 1496 1814 2099 1326 1658 2556 1293 906 1736 1674 2011 1196
0 0 4 47 52 193 225 795 786 562 419 303 192 24 0 0 0 0 0 0 0 174 278 923 713 980 1254 784 1345 1720 1513 1545 1331 1524 1935 2105 1513 1756 1649 1858 1435 2154 1951 1561 1424 1727 1502 1347 1698
0 0 0 70 16 15 27 25 742 628 478 337 261 45 0 0 0 0 0 0 19 279 621 1179 937 847 1044 1799 1201 1298 1335 1246 1264 1589 1599 1476 2284 1651 1966 1509 2417 2418 2011 1873 1711 1666 1713 1646 1246
0 0 0 19 32 28 36 14 10 424 576 440 361 142 5 7 0 0 0 0 66 300 741 1144 944 849 531 1406 1884 1266 1232 860 878 1238 1425 1697 1711 1408 1918 1578 1779 1631 1710 1968 2215 1916 1527 1345 2111
0 0 0 1 46 0 5 1 2 209 566 543 485 392 92 0 0 0 0 0 149 323 631 664 1231 824 719 1271 1964 1388 1618 1062 1053 1061 1130 1515 1282 1386 1668 1358 1374 1903 2142 1252 1355 1934 1785 1775 2051
0 0 0 0 1 3 1 12 0 338 536 558 575 484 318 101 54 24 0 3 106 311 565 700 1505 966 802 1749 1901 1556 1452 1747 1168 1039 866 1020 1332 1483 2148 1605 1770 2318 2236 2169 1287 1724 1726 2062 1720
0 0 0 0 0 0 0 0 0 143 351 604 604 662 467 296 212 119 80 11 29 283 603 814 1244 1412 940 1811 1703 1541 1985 2163 2049 1441 1274 916 1273 1100 1703 1917 2450 2096 2466 2568 1917 2134 1336 1323 2100
0 1 0 0 0 0 10 43 66 175 307 380 633 753 660 526 353 300 242 11 14 291 594 867 1034 1327 1378 1658 1576 1813 2275 2261 2137 2355 1218 1283 1957 1335 1853 2345 2553 2639 2845 2563 2436 2162 1842 1199 744
0 0 0 2 0 0 0 7 0 71 130 238 371 816 809 714 540 415 264 105 18 120 431 1081 1132 1137 1694 1486 1844 1693 1840 2463 1895 2302 2310 1678 2440 2281 2431 2585 2496 2547 2526 2391 2829 2696 2368 2174 1696
0 0 0 1 3 0 0 0 1 20 18 13 446 882 934 818 661 468 357 206 200 75 329 1075 1186 1170 1466 1413 2026 1933 1846 2220 2235 2156 2042 2476 1880 2765 2356 2351 2354 2657 2000 2463 2457 2622 2317 2577 2065
0 0 0 10 0 0 0 0 27 8 60 0 151 929 989 908 707 622 541 393 235 279 154 737 1150 1266 1377 1574 1491 1886 1964 1893 2077 2194 2128 2205 2310 2594 2562 2565 2420 2372 2268 2296 2508 2371 2264 2392 2666

GFSSGP_con_mucape_252.txt.gz
CAPE
10 112 246 683 283 250 49 70 102 136 124 50 106 71 174 357 121 24 472 869 1243 1415 1581 1731 2326 2174 2058 1959 2091 2108 1863 2278 2177 2552 2399 2109 1527 1057 805 2121 2212 2086 1877 1879 1850 2217 2094 1781 1484
139 434 268 732 246 12 81 48 163 144 112 73 79 217 319 491 679 599 689 956 1030 1361 1502 1536 2388 2311 1404 2069 2508 2429 1741 2067 2212 2214 2812 2817 1886 1633 2287 2379 2273 2209 2346 2090 1902 1542 1507 1575 1743
854 737 178 328 299 40 62 90 134 145 136 96 39 49 304 519 616 512 729 782 752 934 1153 1420 2325 1762 1182 1835 2237 2542 2381 1943 2203 2501 1993 2116 2688 2259 2245 2282 2358 2176 1994 1836 1799 1688 1507 1508 1610
1112 150 509 301 76 88 120 49 62 129 111 64 57 109 261 367 348 435 474 671 734 894 1387 2250 2433 1313 1489 1646 1769 1955 2388 2342 2415 2525 2499 2284 2459 2414 2385 1975 1761 1637 1803 1976 1773 1394 1326 1357 1402
1168 176 228 168 101 139 155 112 80 84 32 32 27 84 163 167 264 404 563 656 729 946 1203 1435 2296 2353 1919 1741 1900 1981 2230 2280 2159 2503 2179 2364 2511 2293 2836 2053 2101 2148 1972 1695 1049 957 1109 1086 1122
79 27 87 102 122 89 93 92 38 78 0 0 2 27 38 210 340 445 484 616 761 929 1261 1392 1901 1981 1988 1753 1936 1956 2078 2055 2074 2134 2240 2348 2393 2264 2388 2205 2245 2040 1935 1500 1214 878 769 846 818
214 112 193 305 198 125 79 82 76 14 0 0 0 43 11 198 237 326 348 515 715 944 1122 1281 1421 1402 1773 1757 2043 2277 2242 1976 2236 2142 1935 2241 2353 2337 2074 2697 2342 2206 1882 1818 1771 1604 1407 1089 961
21 57 116 147 154 248 165 141 94 63 0 0 0 0 29 89 157 171 280 354 579 743 993 1115 1190 1253 1398 1509 2140 2062 2231 1859 1844 2207 2136 2213 2137 1944 2122 2853 2765 1950 1888 1742 1596 1613 1667 1815 1959
9 102 0 58 253 142 78 36 18 6 0 0 0 0 0 37 43 128 200 279 343 534 779 982 991 1074 1161 1400 1484 2212 1645 1625 1798 1660 1770 2131 1481 1284 1512 2054 2083 1844 1757 1660 1640 1542 1622 1959 1748
119 11 10 17 57 120 91 19 6 0 0 0 0 1 3 0 1 26 69 53 239 320 538 720 855 914 1098 1214 1459 1149 1063 1062 899 897 923 787 1007 1195 1209 1765 1981 1848 1704 1626 1622 1833 2141 1974 1190
68 14 2 3 122 91 171 2 17 4 0 0 0 0 8 7 16 0 0 45 123 281 235 415 633 780 727 1004 1103 810 605 383 448 494 445 432 588 1250 1336 1440 1498 1224 1338 790 857 794 713 813 753
248 90 58 22 111 171 561 161 46 23 16 0 0 0 0 1 0 0 0 18 74 44 135 335 471 360 471 647 645 417 441 691 650 503 569 691 722 953 488 517 645 637 577 487 358 465 619 864 809
290 113 157 275 274 495 291 132 76 29 13 0 0 0 0 2 0 0 0 5 28 0 0 194 375 203 247 540 289 372 438 659 253 282 556 853 789 649 255 139 191 264 267 436 531 656 913 773 578
96 278 339 207 357 484 83 58 46 0 2 0 0 0 0 0 0 0 0 0 0 0 0 19 125 61 226 344 190 286 376 381 400 572 451 658 668 435 100 225 383 381 436 534 699 793 622 927 1292
169 124 393 203 262 414 132 115 27 1 0 0 0 0 0 0 0 0 0 0 0 0 173 53 49 55 177 0 88 195 337 494 431 527 515 767 647 671 460 428 585 485 462 521 743 812 962 1102 788
112 105 54 175 324 371 159 33 29 1 11 1 0 0 0 0 0 1 0 0 0 22 205 104 64 162 127 195 118 158 272 402 394 448 631 648 746 760 870 1164 671 587 694 656 536 677 767 892 1037
7 71 226 26 0 37 346 147 145 22 4 0 0 0 0 0 0 0 0 0 0 18 185 373 602 604 202 307 507 267 429 421 502 642 682 706 607 727 1024 1102 643 545 369 521 691 776 782 932 517
32 43 375 358 243 29 183 265 100 67 25 0 0 0 0 0 0 0 0 0 2 14 89 211 276 472 580 743 936 538 580 508 1039 673 791 643 761 1091 1272 697 468 286 477 1020 1548 1641 1187 692 882
12 0 109 172 244 189 51 111 225 121 19 3 0 0 0 0 0 0 0 0 1 19 0 29 152 116 645 783 696 969 851 812 798 683 891 590 841 985 1380 1416 1016 400 669 1559 1686 670 1252 1115 1249
26 0 0 55 85 78 58 100 461 164 72 35 0 0 0 0 0 0 0 0 0 0 0 7 32 24 445 556 699 874 899 1004 813 669 735 785 898 1060 1221 1413 727 1110 1140 1931 1056 1049 952 1368 1374
22 6 0 1 148 135 131 95 286 346 187 157 65 7 0 0 0 0 0 0 0 1 9 132 83 148 321 630 768 882 852 1306 881 756 711 771 971 919 1147 1640 1149 1020 1964 1119 825 1254 860 1092 1177
1 1 1 4 73 22 71 11 452 392 280 230 219 127 56 0 0 0 0 0 0 0 0 391 203 278 269 416 929 1071 1049 1091 850 746 776 1114 1283 1129 1130 1572 1349 1593 1796 1215 1153 1047 1602 1383 988
0 0 2 0 37 12 2 0 4 398 385 307 326 218 124 2 0 0 0 0 6 0 34 599 360 306 459 759 528 1009 781 970 805 802 1154 1336 1284 1313 1249 1424 1859 1851 1376 1641 1369 1672 1350 1196 1642
0 0 0 0 1 14 2 2 0 395 568 448 415 311 181 23 0 0 0 0 4 9 86 522 357 269 246 928 1373 906 826 1086 913 831 1423 1483 1282 1443 1180 1286 1444 1244 1230 1384 1586 1392 1223 1019 1448
0 0 0 0 2 0 0 0 0 109 508 529 451 390 294 103 0 8 0 0 0 17 168 533 284 229 303 383 891 1138 1094 562 819 1043 980 1175 1515 1418 856 1023 936 1053 1579 1310 1193 1120 1494 1404 1180
0 0 0 0 0 0 0 0 0 6 259 499 434 470 357 234 64 11 3 0 0 43 259 610 394 363 412 194 680 987 1077 973 832 785 943 921 1062 1131 748 1091 897 1056 1798 2056 1751 1198 996 1083 1543
0 0 0 0 0 0 0 0 0 0 0 311 504 473 392 334 218 73 46 76 1 57 294 404 741 500 523 201 664 1126 1202 1591 1687 1218 787 904 656 574 773 1295 1546 1346 1535 1917 1733 1642 1404 1050 952
0 0 0 0 0 0 0 0 0 0 80 535 599 571 509 447 339 215 111 116 57 87 260 388 758 653 598 510 570 1029 1321 1650 1599 1832 1147 886 858 900 842 1517 1596 1790 1965 2071 2217 2034 1842 1688 1522
0 0 18 0 0 0 0 0 0 0 15 273 688 678 622 588 459 347 181 147 148 107 291 481 582 688 679 545 666 1032 1239 1583 1656 1376 1941 1805 1292 1963 1747 1714 1752 1818 2015 2252 2248 2444 2402 2225 2061
0 0 1 13 0 0 0 0 0 0 0 1 781 378 724 728 639 465 294 213 177 182 354 604 635 661 749 678 772 1021 1097 1208 1716 1515 1499 1613 1717 1934 2134 1929 1781 1787 1892 1831 2124 2189 2365 2396 1947

GFSSGP_con_mucape_258.txt.gz
CAPE
136 181 295 331 64 27 39 30 52 54 98 34 56 34 272 693 227 3 203 454 622 767 1094 1610 1866 1126 969 899 770 803 857 749 833 799 1222 1094 1581 1853 2087 2096 2033 1776 1957 2088 2077 1970 1900 1895 1926
243 458 411 1155 39 49 30 40 39 73 101 164 280 372 524 507 370 294 401 876 924 864 915 1073 2027 1886 867 908 1255 1013 1158 962 1139 1416 1448 1436 1968 2232 2211 2070 2162 2241 2280 2087 2047 1781 1586 1550 1600
479 359 231 134 96 80 66 49 50 45 53 88 283 378 280 324 161 149 514 1019 1035 945 977 1019 1542 1915 1501 896 1602 1703 1266 1230 1344 1635 1572 1528 1922 2026 2229 2405 2376 2051 1961 1918 1762 1753 1551 1446 1539
698 155 354 61 89 70 71 64 61 22 43 114 212 268 400 260 321 525 824 924 948 1043 979 1599 1911 1374 1623 1132 1374 1688 1513 1469 1657 1547 1652 2124 2372 2294 2503 2365 1985 1934 1861 1750 1569 1650 1597 1518 1573
375 46 87 136 110 87 74 85 40 30 12 59 133 188 244 425 472 576 664 730 814 995 1207 1103 1808 1710 1842 1437 1470 1739 2015 2181 1730 1912 2145 2174 2375 2123 1786 1751 2164 2047 1484 1207 1328 1472 1426 1335 1542
29 51 78 101 71 76 88 78 21 47 38 44 92 117 269 348 243 392 507 578 793 1045 1227 1045 1279 1620 1567 1766 1672 1843 2092 2202 2375 2336 2522 2279 2140 1894 2321 2222 2061 1647 1154 1116 1267 1350 1217 1366 2064
69 31 74 118 85 69 70 66 5 48 0 0 26 4 218 206 206 210 343 552 881 1076 1051 1061 1190 1185 1577 1782 1960 1839 2027 2175 2175 2352 2363 2312 2365 2135 2498 2157 1946 1646 1557 1445 1472 1472 1494 1558 2059
40 12 63 108 235 61 46 35 11 29 0 0 0 0 94 222 295 311 368 614 816 909 953 912 976 1133 1177 1313 1682 1981 2014 2019 2286 2254 2363 2230 2242 2005 2300 2598 2339 1885 1774 1658 1610 1602 1578 1713 2129
14 8 53 81 183 50 18 30 29 0 0 0 0 7 90 229 237 260 339 504 689 813 871 775 970 1036 1236 1226 1426 1602 1885 1992 1918 1967 2050 2288 1823 1692 1915 2053 1852 1721 1719 1621 1513 1483 1622 2059 1753
11 0 10 55 77 106 143 41 19 0 0 0 40 132 160 164 162 64 60 88 273 613 762 695 830 961 1160 1318 1246 1323 1396 1651 1422 1582 1790 1576 1368 1289 1418 1819 1803 1801 1792 1725 1725 1838 1908 1687 1089
18 6 33 30 27 67 180 36 8 0 0 0 3 91 96 119 88 23 27 58 120 342 613 623 694 811 1103 1109 928 1164 1199 1371 1367 1341 1476 1124 847 1051 1159 1396 1648 1312 1360 673 384 466 544 627 721
167 38 7 44 19 153 368 422 34 19 2 0 19 33 62 71 23 7 15 62 103 253 493 594 640 713 990 999 824 922 1029 1098 994 874 656 655 801 798 864 898 936 644 353 401 432 455 730 721 800
318 88 175 209 267 593 600 773 261 22 20 0 0 0 27 29 0 0 0 13 52 169 364 528 498 552 738 848 771 779 831 744 582 384 238 405 494 538 498 278 375 392 262 197 332 514 696 821 1003
224 156 203 24 72 190 477 600 496 27 16 23 0 0 0 0 0 0 0 0 22 67 158 332 416 440 507 676 628 510 318 242 253 163 218 312 408 505 520 218 169 99 105 333 391 486 596 778 821
424 276 148 15 12 10 503 34 38 4 30 44 0 0 0 0 0 0 0 0 1 1 19 141 270 376 330 409 389 195 143 304 510 331 270 382 586 537 598 72 44 166 293 385 554 498 502 601 770
142 182 24 131 40 76 365 22 34 4 35 33 14 0 0 0 0 0 0 0 0 0 0 70 110 192 102 120 112 91 183 297 511 313 207 359 543 501 396 16 128 273 404 472 407 390 665 1122 787
34 11 42 15 11 164 298 82 66 35 11 33 8 0 0 0 0 0 0 0 0 0 0 6 37 76 101 48 75 76 125 212 142 247 309 268 346 522 427 492 451 921 464 486 351 696 1298 1072 689
50 25 16 37 64 138 82 232 99 81 61 26 1 0 0 0 0 0 0 0 0 0 0 2 4 52 35 10 69 44 118 188 235 228 278 343 451 497 560 573 741 729 440 322 583 1186 1167 663 867
29 14 0 0 0 11 4 69 194 101 42 49 27 0 0 0 0 0 0 0 0 0 0 0 0 0 17 29 21 32 57 137 194 293 217 317 400 501 599 696 800 492 248 399 1104 1280 994 971 1177
14 1 1 0 0 0 0 1 106 172 152 30 50 68 6 0 0 0 0 0 0 0 0 0 0 0 0 36 146 133 89 136 218 311 371 362 351 431 670 854 1152 667 458 388 843 1177 670 698 926
4 4 5 0 0 0 7 8 4 35 140 107 41 85 97 14 0 0 0 0 0 0 0 0 0 14 47 171 342 530 273 339 277 434 646 452 509 426 601 837 1084 839 574 484 916 1351 659 580 677
0 0 3 4 0 0 0 0 1 30 49 74 60 50 104 136 17 0 0 0 0 0 0 0 5 20 147 167 419 569 581 484 488 430 665 468 497 427 653 823 1195 1309 671 1042 1074 980 716 915 744
0 0 0 4 6 0 0 0 0 11 93 55 77 76 68 140 174 23 0 0 0 0 0 0 34 71 224 156 406 526 574 548 606 530 550 433 483 483 660 858 1128 1359 1421 1243 1386 1051 623 965 910
0 0 0 0 4 0 0 0 0 67 218 149 109 77 78 140 163 184 56 0 0 0 0 0 35 110 194 209 280 477 534 598 735 879 718 579 322 443 720 969 1000 1292 1362 1184 1427 1205 1037 1123 964
0 0 0 0 3 0 0 0 0 0 0 97 64 3 40 122 157 216 167 49 0 0 0 0 0 6 13 91 193 285 425 540 535 714 907 670 565 553 642 854 967 1167 1372 1469 1261 1121 1055 1058 901
0 0 0 0 0 0 0 0 0 0 0 0 24 60 0 3 110 155 237 180 59 0 0 0 0 0 0 0 49 247 349 421 595 860 922 901 602 649 728 778 1008 999 1362 1417 1167 1006 943 1115 879
0 0 0 0 0 0 0 0 0 0 0 0 5 18 58 1 0 56 188 306 204 7 0 0 7 0 0 29 120 148 256 402 567 611 798 785 749 780 798 966 1084 1010 1131 1090 1199 935 694 715 880
0 0 0 0 0 0 0 0 0 0 0 0 0 0 44 49 21 14 116 319 317 146 0 0 2 18 31 42 135 374 399 443 549 739 785 834 877 895 861 1040 1161 1129 1046 895 1203 1057 1121 1163 1148
0 0 0 0 0 0 0 0 0 0 0 0 0 91 133 32 76 75 79 266 416 311 38 0 11 29 40 60 83 215 454 662 770 875 985 960 778 759 942 973 871 1060 1201 1094 1242 1446 1411 1288 1435
0 0 0 0 0 0 0 0 0 0 0 0 0 29 519 478 417 305 189 140 459 429 224 0 8 66 88 69 77 144 262 533 860 977 1038 1067 934 998 1024 949 924 1064 1283 1102 1135 1347 1774 1903 1912

GFSSGP_con_mucape_261.txt.gz
CAPE
163 265 266 705 415 251 174 149 70 0 37 37 0 8 108 586 165 43 288 175 149 269 675 797 1761 1145 905 805 898 973 831 595 1046 1110 1311 1494 1188 1870 2238 2176 2178 2294 2231 2189 2115 2060 2071 1978 1839
310 339 586 1214 303 76 115 74 57 174 91 80 271 409 464 523 267 294 268 241 169 366 553 653 1743 1529 927 807 859 1092 919 727 740 1318 1143 1663 2217 2301 2300 1968 2050 2070 2115 2065 1888 1834 1675 1662 1696
410 349 448 598 202 87 125 123 134 78 21 94 398 391 369 314 172 159 400 336 434 569 626 808 1401 1052 807 949 844 1044 722 1060 1213 1236 1338 1728 2235 2255 2347 2203 2213 1968 2132 2004 1755 1747 1653 1656 1940
461 226 648 369 112 67 46 106 41 50 78 244 292 398 348 269 97 398 491 375 471 765 844 1403 1526 1471 933 944 1063 1136 1041 1220 1768 1531 1577 1644 1927 2154 2197 2076 1932 1801 1934 1751 1607 1633 1611 1768 1875
193 234 455 280 75 63 56 20 19 24 46 170 161 163 96 464 637 470 572 558 730 803 1119 1627 2093 1548 1180 1141 1319 1321 1443 1743 1755 2105 2223 2280 1958 1965 1909 2210 2071 1604 1373 1479 1604 1574 1626 1826 1915
152 356 387 238 38 65 75 18 21 16 34 96 82 45 168 599 474 415 539 615 641 857 1030 885 1532 1842 1486 1221 1509 1665 1846 1883 1998 2215 2320 2182 1963 2436 2365 2088 1598 1192 1275 1423 1479 1472 1740 2255 1904
159 244 306 111 37 39 59 0 11 7 0 0 43 2 261 141 227 356 499 634 775 1103 847 598 946 1279 1616 1597 1625 1774 1968 1901 2248 2169 2322 2376 2039 1888 2231 1939 1578 1507 1620 1642 1636 1651 1766 1919 1959
168 129 79 192 56 14 34 1 0 0 0 0 0 2 79 60 128 323 455 595 667 813 820 666 1326 1311 1472 1732 1751 1757 2019 2186 2184 2421 2417 2355 2110 2244 2370 2225 2263 1819 1715 1627 1587 1620 1572 1687 1915
3 90 39 103 234 1 3 0 0 0 0 0 25 13 38 54 61 145 185 264 799 985 804 726 1142 1523 1661 1642 1505 1820 1873 1921 2143 2261 2194 2254 1881 1854 1616 1977 1789 1756 1612 1617 1681 1711 1748 1930 1502
0 3 8 50 117 47 58 0 0 0 0 23 95 133 187 180 9 0 0 50 316 385 570 699 943 1094 1313 1069 1530 1581 1586 1764 1813 2209 2555 2130 1997 1996 1469 1666 1979 1911 1922 1816 1681 1538 1331 1168 1243
1 52 16 10 40 72 108 0 0 0 0 0 44 102 146 137 47 44 0 89 189 317 608 754 887 1070 997 1087 1556 1451 1576 1883 1868 2275 2171 1913 1564 1642 1397 1527 1352 1324 1203 599 628 992 1143 1301 1367
345 23 0 0 24 203 349 112 0 0 0 0 3 82 108 153 114 33 24 31 91 325 555 661 938 1034 1363 1247 1130 1560 1453 1782 1551 1624 1735 1542 1052 1309 1435 1261 1421 1117 935 1103 1263 1433 1765 1671 1646
360 121 166 259 476 527 622 492 148 0 0 0 0 54 101 122 152 53 2 17 98 223 422 573 998 1103 1375 1301 1410 1554 1489 1406 1204 1160 1170 1106 1100 1141 1108 1038 897 804 693 993 1516 1602 1799 1903 1850
331 193 194 118 85 83 629 780 603 108 0 0 0 0 69 81 108 38 16 19 76 141 299 503 805 1028 1123 1038 1504 1237 1324 1216 1020 615 682 1070 1146 1339 1082 764 445 506 901 1364 1441 1707 1897 1715 1732
278 291 51 33 16 33 467 91 153 26 0 0 0 0 28 67 37 0 0 0 24 91 175 375 577 693 926 1131 1343 944 826 456 480 482 974 1145 1380 1510 1538 726 318 731 1477 1723 1848 1776 1412 1878 1814
179 148 24 165 15 93 546 179 45 19 9 0 0 0 0 58 30 9 0 0 0 14 134 280 234 367 683 812 1077 644 452 626 905 886 1029 1114 1289 1486 1565 626 527 1401 1698 1510 1635 1537 1804 2334 1862
0 0 0 6 24 197 495 465 61 37 21 4 4 0 8 13 31 45 0 0 0 0 42 245 374 364 540 695 581 583 707 892 943 1038 922 1082 1153 1274 1415 1041 1213 1927 1832 1517 1423 1542 2719 2212 1815
0 0 9 6 7 43 126 302 172 57 48 29 11 6 0 0 0 4 3 0 4 0 17 147 373 527 662 638 617 478 670 754 855 866 925 1134 1087 1354 1568 1481 1688 1968 1628 1452 1418 2947 2130 1803 2351
2 0 10 8 0 9 0 3 9 27 47 29 26 30 3 0 0 0 0 0 0 0 0 142 376 601 699 610 459 482 508 695 785 942 1025 1176 1245 1371 1692 1470 1805 1743 1543 1569 1911 2252 2382 1794 2316
5 3 1 0 0 0 0 0 1 77 33 41 23 48 47 0 0 0 0 0 0 41 40 93 364 599 631 556 538 355 344 644 809 1008 1147 1143 1277 1385 1544 1912 2029 2183 1563 1950 1850 2432 1988 1583 2132
0 2 6 4 0 0 0 17 176 122 19 81 57 17 76 77 0 0 0 0 0 12 140 153 319 504 671 631 615 820 757 936 955 1126 1166 1233 1366 1396 1643 2009 2157 2473 2054 1602 1965 2367 2286 1655 1707
0 0 0 0 4 0 0 0 0 220 163 52 39 66 4 39 107 0 0 0 0 0 99 310 506 527 619 791 837 1151 868 870 814 1072 1198 1429 1528 1532 1555 1873 2125 2577 2237 2184 2228 2223 2264 2243 1391
0 0 0 0 0 0 0 0 0 102 364 203 92 75 59 48 47 153 105 0 0 0 78 227 700 780 827 876 1275 1249 1326 1226 1251 1143 1452 1815 1677 1599 1321 1558 1955 2454 2680 2650 2621 2810 2455 2005 1785
0 0 0 0 0 0 0 0 0 0 4 91 339 143 22 11 43 65 143 39 24 7 72 169 743 1257 917 910 1066 1584 2026 1556 1435 1516 1389 1284 1085 1171 1658 1517 1994 2322 2536 2887 2647 3033 2792 2559 2437
0 0 0 0 0 0 0 0 0 0 4 41 0 32 111 56 7 25 56 130 67 71 121 179 708 900 724 811 1094 1195 1814 2063 1877 1975 1719 1871 1311 982 1686 1850 2003 2005 2565 2927 2742 2875 2821 2714 2422
0 0 0 0 0 0 0 0 0 0 0 0 0 13 1 1 22 18 14 54 161 102 270 256 556 901 807 726 1313 1736 2052 1333 1526 1947 1643 1779 1557 1347 1923 1746 1702 2001 2405 2634 2807 2511 2525 2527 2519
0 0 0 0 0 0 0 0 0 0 0 0 0 0 3 1 23 1 1 2 102 277 432 393 759 874 896 723 1304 1683 1772 1930 1765 2165 1995 1803 2193 1715 1977 1709 1575 1720 2239 2478 2689 2349 2416 2209 2214
0 0 0 0 0 0 0 0 0 0 0 0 0 0 0 11 19 490 16 0 24 122 366 285 392 836 734 608 1017 1213 1595 1851 2096 2043 1848 1922 1987 2110 1789 1988 1911 2108 2414 2353 2513 2217 2223 2363 2191
0 0 0 0 0 0 0 0 0 0 0 0 0 0 0 3 358 759 360 99 10 19 261 275 308 699 909 954 1044 1220 1091 1414 1596 1617 1865 1975 2018 2217 2191 2213 2230 2333 2384 2463 2448 2391 2212 2316 2480
0 0 0 0 0 0 0 0 0 0 0 0 0 0 0 0 412 803 643 466 147 126 294 375 538 787 1018 1127 1257 1333 1211 1412 1239 1782 1660 1808 2038 2149 2195 2166 2210 2298 2323 2420 2474 2395 1849 2169 2451

GFSSGP_con_mucape_264.txt.gz
CAPE
336 458 522 1349 1210 180 180 285 161 92 130 112 101 69 283 577 300 604 286 173 211 374 519 688 1142 1099 1080 758 403 712 659 1076 1365 1287 977 1532 2050 2074 1979 2317 2432 3043 2441 2252 2208 1998 1880 1989 1921
375 639 1301 1950 418 65 139 128 216 278 47 54 263 227 314 581 408 261 221 171 184 375 546 628 1066 1151 1014 685 754 755 854 1110 1343 1295 1206 2097 2200 2723 2200 2169 2237 2265 2016 1922 1926 1859 1828 1825 1621
357 913 1789 902 117 57 68 185 300 126 16 68 334 438 535 585 230 212 228 156 172 347 652 886 1006 974 1107 1083 685 788 1031 1423 1220 1242 2026 2219 2395 2252 2059 2270 2216 2175 1907 1876 1863 1896 2075 2077 1990
824 900 1499 297 150 143 158 180 181 138 162 114 374 645 394 243 289 462 287 259 449 507 667 1369 1400 977 1082 791 605 925 1431 1136 1356 1773 1701 2064 1704 2253 2187 2204 2169 2041 1892 1815 1849 1811 1895 1987 1797
576 983 602 308 148 92 107 80 46 42 98 135 117 297 187 349 413 409 350 350 756 766 930 1146 1571 1353 1061 1306 1238 1640 1564 1581 1322 1705 1569 1888 2113 2000 2449 2054 1562 1530 1795 1843 1720 2052 2187 1977 1724
1008 1237 360 263 143 45 78 42 34 0 70 115 92 75 560 463 382 433 512 636 640 798 781 833 1732 1572 1269 1403 1709 1754 1598 1757 2096 1993 2073 2108 2184 2200 2190 1659 1267 1375 1591 1696 1755 1976 2318 1940 1628
699 834 458 219 148 45 49 0 6 0 0 0 0 1 277 207 239 370 494 501 545 617 486 492 957 1424 1569 1585 1847 2027 1668 1877 2327 2355 2342 1930 2077 2193 1922 1590 1522 1702 1826 1809 1659 1773 1804 2060 1854
713 670 765 304 292 169 0 0 0 0 0 0 0 0 36 50 136 245 348 357 570 550 333 217 607 794 1067 1319 1724 1739 1954 2078 2238 2199 2024 1977 2145 1976 1768 2107 1880 1756 1731 1634 1594 1674 1743 1697 2013
123 841 756 615 400 131 0 0 0 0 0 1 0 0 4 0 23 77 190 197 294 315 233 282 584 1103 1402 1469 1657 1447 1856 2142 2071 2041 1956 1915 1206 1230 1637 1839 1726 1689 1672 1661 1707 1724 1726 1666 1734
183 571 388 595 428 102 138 0 0 0 0 0 1 10 0 0 2 11 30 108 301 407 269 465 596 1051 1135 904 1340 1384 1332 1364 1803 2072 1909 1279 1500 1701 1368 1735 1967 1889 1568 1394 1023 969 1340 1849 1295
323 415 186 394 212 215 102 0 0 0 4 0 11 7 0 0 0 2 0 25 210 316 231 456 585 802 513 986 1123 1224 1309 1441 1911 2138 1839 1598 1385 1233 1150 1297 1283 1260 974 1103 1366 1714 1806 1832 1690
726 206 146 281 108 453 110 88 0 0 0 0 0 0 10 0 0 0 0 22 119 226 228 388 494 575 581 847 893 1051 1128 1184 1041 1504 1909 1470 1270 1297 998 1154 1244 1125 1151 1639 1800 1766 2167 2123 1907
550 346 279 227 443 631 648 247 149 0 0 0 0 0 0 5 4 0 0 0 31 169 274 405 526 705 833 996 868 977 874 1031 1044 1225 1387 885 1032 1003 800 1094 990 1194 1286 1396 1741 1918 2210 2039 1498
256 458 550 619 572 510 739 885 716 82 0 0 0 7 39 38 32 15 8 0 12 101 226 314 636 762 919 766 1283 1269 1041 1082 885 600 882 1259 1150 1195 865 1002 1079 1105 1465 1602 1907 2475 2038 1795 1468
241 592 394 191 567 162 305 527 637 391 0 4 0 43 69 92 33 0 0 0 17 61 110 253 447 599 780 816 1269 1090 1016 697 417 300 1097 1338 1465 1668 1439 1174 966 1237 1686 2070 1814 2023 1467 1665 1345
62 222 192 179 210 247 551 693 53 246 102 30 0 0 16 32 0 0 0 0 0 9 85 208 139 271 587 719 880 634 419 320 253 384 866 1363 1513 1657 1748 1164 868 1730 1502 1180 1288 1509 1874 1662 1435
0 0 31 95 141 162 699 644 248 176 105 93 7 0 12 14 0 0 0 0 0 0 73 224 248 174 365 731 618 624 473 505 377 499 841 1412 1232 1245 1708 997 1278 1918 1201 1092 1379 1828 2126 1700 1734
0 3 0 0 1 0 1 3 296 131 177 166 75 0 12 3 2 0 0 3 0 0 24 203 289 267 483 512 689 652 726 877 717 571 822 1174 1077 1249 1604 1178 1563 1718 971 1084 1832 3108 2226 1974 1937
0 0 0 64 0 8 4 0 0 151 163 243 190 41 13 8 1 8 22 0 63 17 18 194 572 762 732 665 724 816 980 1028 917 752 830 1306 1063 1071 1573 1161 1292 1382 1214 1661 1962 2257 2070 1675 1698
1 0 0 18 24 59 0 0 3 84 249 276 248 146 96 13 0 4 65 57 52 215 247 286 600 1127 1239 884 961 848 915 908 987 933 1112 1380 1182 1102 1386 1336 1001 1010 915 1930 2139 2556 2016 1542 1886
1 0 0 0 0 0 0 1 70 447 457 357 306 291 259 146 0 0 65 137 83 149 429 475 880 1115 1375 907 925 1005 869 1098 1125 1120 1215 1347 1230 1147 1473 1617 1367 1725 1976 1123 2172 2250 2658 1559 1683
0 0 0 0 0 0 0 0 0 188 567 560 495 377 332 316 155 63 52 150 169 165 237 576 812 1174 1393 1308 1150 1154 952 920 827 991 927 942 1182 1060 1246 1786 2062 2131 1198 1300 1948 1965 2624 2301 923
0 0 0 0 0 0 0 0 2 0 12 116 224 331 301 289 260 144 120 60 157 118 217 492 970 1179 1213 1477 1343 1263 1439 1010 825 809 1102 1524 1486 1243 1338 1689 1957 2135 2291 2168 2705 2401 3263 2001 1686
0 0 0 0 0 0 0 0 2 17 0 20 7 75 169 209 245 237 159 105 111 148 169 345 1379 1832 1435 1397 1634 1548 1870 1679 1091 1310 991 1139 855 1073 1465 1544 1954 2100 2142 2603 2776 2873 2905 2466 2389
0 0 0 0 0 0 0 0 0 4 0 0 0 0 0 5 68 116 276 206 181 225 202 297 1296 1599 1483 1337 1514 1552 1787 1915 1889 1620 1122 1509 560 533 1883 2134 2273 1831 2476 2698 2969 3199 2625 2184 1936
0 0 0 0 0 0 0 0 0 0 0 0 0 0 0 0 18 89 55 246 251 276 363 367 674 1766 1523 1339 1705 2273 2493 1704 1699 2017 1116 806 576 534 1716 1798 1699 1760 1901 2515 2995 2966 2672 2539 2923
0 0 0 0 0 0 0 0 0 0 0 0 0 0 0 0 0 48 354 260 214 314 483 495 758 1238 1615 1325 1734 2691 2774 2525 1692 2565 2372 1244 2010 553 859 1246 1557 1528 1758 2236 2567 2773 2316 2735 2616
0 0 0 0 0 0 0 0 0 0 0 0 0 0 0 0 0 0 99 972 802 205 410 565 656 1001 1378 1222 1599 1912 2049 2364 2444 2062 2329 2318 1759 2081 1916 2303 1893 1675 1725 1937 2499 2377 2597 2796 2394
0 0 0 0 0 0 0 0 0 0 0 0 0 0 0 0 0 0 28 449 1321 319 289 599 726 864 1276 1945 1843 2295 1976 2097 1968 1565 2033 2280 2018 2474 2872 2710 2742 2536 2246 2065 2719 2816 2203 1865 2506
0 0 0 0 0 0 0 0 0 0 0 0 0 0 0 0 0 0 24 353 1167 458 323 516 759 996 1724 2241 2659 2110 1681 1767 1540 1786 1806 1951 2207 2258 2541 2805 2958 2794 2761 2865 2994 2865 2093 2300 2556